Flag for U.S.A. Weather past 2 weeks in Freehold, New Jersey, U.S.A.

Now
77 °F

Broken clouds.


Feels Like: 79 °F
Forecast: 69 / 81 °F
Wind: 7 mph from North

Location: Belmar-Farmdale

Current Time: Jul 24, 2014 at 11:44:35 AM

Latest Report: Jul 24, 2014 at 11:15 AM


Visibility: 10 mi

Pressure: 29.87 "Hg

Humidity: 65%

Dew point: 64 °F

Location of FreeholdLocation

Historic Weather in Freehold — Graph

°F

Freehold temperature yesterday

Maximum temperature yesterday: 88 °F (at 12:35 PM)
Minimum temperature yesterday: 68 °F (at 6:15 AM)
Average temperature yesterday: 80 °F

Past Weeks' High & Low Weather Summary

 TemperatureHumidityPressure
High88 °F (Jul 9, 12:15 PM)94% (Jul 14, 10:35 PM)30.25 "Hg (Jul 14, 10:35 PM)
Low61 °F (Jul 18, 3:15 AM)32% (Jul 18, 1:35 PM)29.75 "Hg (Jul 15, 2:15 PM)
Average74 °F70%30.04 "Hg
* Reported Jul 9 10:15 AM — Jul 24 10:55 AM, Freehold, Weather by CustomWeather, © 2014

Note: Actual official high and low records may vary slightly from our data, if they occured in-between our weather recording intervals... More about our weather records

Advertising

Freehold weather history for previous 24 hours

 ConditionsComfort  
Time TempWeatherWind HumidityBarometerVisibility
10:55 AM
Jul 24
77 °FPartly sunny.10 mph65%29.87 "Hg10 mi
10:35 AM77 °FPartly sunny.9 mph65%29.87 "Hg10 mi
10:15 AM75 °FPassing clouds.10 mph69%29.87 "Hg10 mi
9:55 AM75 °FScattered clouds.8 mph65%29.86 "Hg10 mi
9:35 AM75 °FPartly sunny.9 mph65%29.86 "Hg10 mi
9:15 AM75 °FScattered clouds.13 mph65%29.85 "Hg10 mi
8:55 AM73 °FPartly sunny.12 mph69%29.85 "Hg10 mi
8:35 AM73 °FOvercast.13 mph74%29.86 "Hg10 mi
7:55 AM72 °FSunny.9 mph73%29.86 "Hg10 mi
7:35 AM72 °FPassing clouds.9 mph73%29.85 "Hg10 mi
7:15 AM70 °FSunny.9 mph78%29.85 "Hg10 mi
6:55 AM70 °FSunny.8 mph78%29.84 "Hg10 mi
6:35 AM70 °FClear.7 mph78%29.83 "Hg10 mi
6:15 AM70 °FClear.7 mph78%29.83 "Hg10 mi
5:55 AM70 °FClear.8 mph78%29.82 "Hg10 mi
5:35 AM70 °FClear.9 mph78%29.82 "Hg10 mi
5:15 AM72 °FClear.12 mph73%29.82 "Hg10 mi
4:55 AM72 °FClear.10 mph78%29.82 "Hg10 mi
4:35 AM72 °FClear.8 mph78%29.82 "Hg10 mi
4:15 AM72 °FClear.6 mph78%29.82 "Hg10 mi
3:55 AM72 °FClear.7 mph78%29.80 "Hg10 mi
3:35 AM73 °FClear.7 mph78%29.80 "Hg10 mi
3:15 AM73 °FClear.7 mph78%29.81 "Hg10 mi
2:55 AM73 °FPassing clouds.8 mph78%29.81 "Hg10 mi
2:35 AM73 °FPassing clouds.9 mph78%29.82 "Hg10 mi
2:15 AM73 °FClear.9 mph78%29.82 "Hg10 mi
1:55 AM73 °FPassing clouds.10 mph78%29.82 "Hg10 mi
1:35 AM73 °FPassing clouds.10 mph78%29.81 "Hg10 mi
1:15 AM73 °FMostly cloudy.9 mph78%29.82 "Hg10 mi
12:55 AM73 °FPartly cloudy.7 mph78%29.82 "Hg10 mi
12:35 AM73 °FPassing clouds.7 mph78%29.83 "Hg10 mi
12:15 AM73 °FClear.8 mph78%29.83 "Hg10 mi
11:55 PM
Jul 23
75 °FClear.6 mph74%29.82 "Hg10 mi
11:35 PM75 °FClear.7 mph74%29.82 "Hg10 mi
10:55 PM77 °FClear.7 mph65%29.82 "Hg10 mi
10:35 PM79 °FClear.8 mph61%29.82 "Hg10 mi
10:15 PM79 °FClear.9 mph61%29.84 "Hg10 mi
9:55 PM79 °FPassing clouds.9 mph65%29.84 "Hg10 mi
9:35 PM79 °FPassing clouds.9 mph70%29.85 "Hg10 mi
8:55 PM79 °FSunny.8 mph70%29.83 "Hg10 mi
8:35 PM81 °FSunny.10 mph66%29.82 "Hg10 mi
8:15 PM81 °FSunny.8 mph66%29.82 "Hg10 mi
7:55 PM81 °FSunny.8 mph70%29.82 "Hg10 mi
7:35 PM81 °FSunny.13 mph70%29.82 "Hg10 mi
7:15 PM82 °FSunny.9 mph66%29.81 "Hg10 mi
6:55 PM82 °FSunny.10 mph70%29.80 "Hg10 mi
6:35 PM84 °FSunny.7 mph66%29.81 "Hg10 mi
6:15 PM84 °FSunny.9 mph66%29.81 "Hg10 mi
5:55 PM86 °FSunny.10 mph62%29.81 "Hg10 mi
5:35 PM84 °FScattered clouds.12 mph70%29.81 "Hg10 mi
4:55 PM84 °FPassing clouds.8 mph70%29.82 "Hg10 mi
4:35 PM84 °FScattered clouds.8 mph70%29.84 "Hg10 mi
4:15 PM84 °FBroken clouds.12 mph70%29.84 "Hg10 mi
3:55 PM84 °FBroken clouds.10 mph70%29.85 "Hg10 mi
3:15 PM84 °FBroken clouds.8 mph70%29.87 "Hg10 mi
2:55 PM84 °FCloudy.8 mph70%29.87 "Hg10 mi
2:35 PM84 °FPartly sunny.10 mph70%29.89 "Hg10 mi
2:15 PM84 °FBroken clouds.9 mph70%29.89 "Hg10 mi
1:55 PM86 °FPartly sunny.9 mph66%29.89 "Hg10 mi
1:15 PM86 °FPartly sunny.6 mph62%29.90 "Hg10 mi
12:55 PM88 °FBroken clouds.7 mph59%29.90 "Hg10 mi
12:35 PM88 °FScattered clouds.10 mph59%29.91 "Hg10 mi
12:15 PM86 °FScattered clouds.10 mph62%29.92 "Hg10 mi
11:55 AM86 °FPassing clouds.9 mph62%29.93 "Hg10 mi
11:35 AM86 °FPassing clouds.7 mph62%29.94 "Hg10 mi
11:15 AM84 °FSunny.8 mph66%29.95 "Hg10 mi
Weather by CustomWeather, © 2014

See weather overviewHow to use our weather pages